Regional Weather Roundup
Issued by NWS

Home | Current Version | Previous Version | Graphics & Text | Print | Product List | Glossary On
Versions: 1 2 3 4 5 6 7 8 9 10 11 12 13 14 15 16 17 18 19 20 21 22 23 24 25 26 27 28 29 30 31 32 33 34 35 36 37 38 39 40 41 42 43 44 45 46 47 48 49 50
000
ASUS43 KLMK 221502
RWRKY
KENTUCKY REGIONAL WEATHER ROUNDUP
NATIONAL WEATHER SERVICE LOUISVILLE KY
1100 AM EDT THU JUN 22 2017

NOTE "FAIR" INDICATES FEW OR NO CLOUDS BELOW 12,000 FEET
WITH NO SIGNIFICANT WEATHER AND/OR OBSTRUCTIONS TO VISIBILITY.

KYZ001>023-026-027-061>063-070>075-221600-
WESTERN AND SOUTH CENTRAL KENTUCKY

CITY           SKY/WX    TMP DP  RH WIND       PRES   REMARKS
PADUCAH        CLOUDY    78  70  76 S13G23    29.91F
HENDERSON      CLOUDY    77  70  79 S14G25    29.97S
OWENSBORO      CLOUDY    78  69  73 S18G28    29.98S
HOPKINSVILLE   DRIZZLE   72  71  97 SE12      29.97F
BOWLING GREEN  LGT RAIN  73  71  93 SE8       30.03F FOG
GLASGOW        NOT AVBL
$$

KYZ024-025-028>034-038-045-046-053-221600-
NORTH CENTRAL KENTUCKY

CITY           SKY/WX    TMP DP  RH WIND       PRES   REMARKS
LOUISVILLE/SDF CLOUDY    80  69  69 S12       30.01F
LOUISVILLE/LOU CLOUDY    81  70  69 S8G17     30.02S
FORT KNOX      CLOUDY    77  68  73 S15G21    30.02S
$$

KYZ035>037-039>044-047>052-055>060-089>105-221600-
NORTHEAST KENTUCKY

CITY           SKY/WX    TMP DP  RH WIND       PRES   REMARKS
LEXINGTON      CLOUDY    79  67  66 S10       30.07R
COVINGTON      CLOUDY    77  69  76 S9        30.04R
FRANKFORT      CLOUDY    79  67  66 SW10      30.04S
$$

KYZ054-064>069-076>088-106>120-221600-
SOUTHEAST KENTUCKY

CITY           SKY/WX    TMP DP  RH WIND       PRES   REMARKS
JACKSON        CLOUDY    75  68  78 VRB3      30.11S
LONDON         LGT RAIN  72  67  84 S6        30.12R
SOMERSET       CLOUDY    72  68  88 CALM      30.11S
MIDDLESBORO    DRIZZLE   72  70  95 CALM      30.14S
MONTICELLO     LGT RAIN  72  68  87 E7        30.12R
$$





USA.gov is the U.S. government's official web portal to all federal, state and local government web resources and services.